Tiempo atmosférico en la estación meteorológica de Llanes, Asturias (10 m.)



Fecha
DESCASC
Temp. máxima en grados centígrados (hora)
DESCASC
Temp. mínima en grados centígrados (hora)
DESCASC
Temp. media en grados centígrados
DESCASC
Racha de viento máxima en m/sg (hora)
DESCASC
Velocidad máxima media en intervalos de 10 minutos(hora)
DESCASC
Precipitaciones diarias en mm
DESCASC
Precipitaciones de 00:00 a 06:00 en mm
DESCASC
Precipitaciones de 06:00 a 12:00 en mm
DESCASC
Precipitaciones de 12:00 a 18:00 en mm
DESCASC
Precipitaciones de 18:00 a 24:00 en mm
DESCASC
26-11-2020 17.3 (14:30) 10.3 (04:50) 13.8 4.72 (23:30) 3.61 (23:20) 0 0 0 0 0
25-11-2020 15.8 (12:20) 9.6 (00:10) 12.7 7.78 (16:40) 6.11 (16:50) 0 0 0 0 0
24-11-2020 18.6 (15:00) 9 (08:20) 13.8 6.11 (18:40) 4.17 (15:00) 0 0 0 0 0
23-11-2020 17.3 (14:20) 7.8 (08:20) 12.5 5.28 (14:50) 3.89 (15:00) 0 0 0 0 0
22-11-2020 17.8 (14:50) 7.4 (00:00) 12.6 4.44 (21:10) 3.89 (03:30) 0 0 0 0 0
21-11-2020 17 (14:50) 7.8 (00:00) 12.4 8.33 (11:30) 5.83 (15:40) 0 0 0 0 0
20-11-2020 16.8 (14:30) 10.4 (00:00) 13.6 9.44 (16:50) 7.78 (14:10) 0 0 0 0 0
19-11-2020 17 (00:00) 11.4 (00:00) 14.2 9.72 (02:30) 5.28 (02:30) 11.8 4.2 6.2 1 0.4
18-11-2020 21.4 (14:00) 11.5 (00:00) 16.4 8.61 (23:59) 5.28 (23:59) 0 0 0 0 0
17-11-2020 18.5 (14:10) 9.2 (00:00) 13.8 5.83 (13:10) 3.89 (14:30) 0 0 0 0 0
16-11-2020 18 (15:10) 10.7 (00:00) 14.3 5.56 (00:10) 3.06 (22:50) 0 0 0 0 0
15-11-2020 21.5 (08:50) 12.9 (00:00) 17.2 11.11 (18:10) 6.11 (18:10) 9 0 0.2 6 2.8
14-11-2020 21.4 (13:40) 11 (00:00) 16.2 4.72 (12:50) 3.61 (19:30) 0 0 0 0 0
13-11-2020 21.1 (13:40) 12.4 (00:00) 16.8 5.83 (16:20) 3.89 (16:20) 0 0 0 0 0
12-11-2020 20.8 (14:10) 13.3 (00:00) 17 7.5 (17:10) 5.28 (17:10) 0 0 0 0 0
11-11-2020 18.6 (15:20) 10.1 (00:00) 14.4 4.17 (08:30) 3.33 (08:30) 0 0 0 0 0
10-11-2020 18.7 (12:10) 12.2 (00:00) 15.5 5.83 (17:20) 4.72 (17:20) 0 0 0 0 0
09-11-2020 21 (11:50) 12.5 (00:00) 16.8 6.94 (14:40) 4.17 (14:50) 0.6 0 0 0.4 0.2
08-11-2020 19.7 (14:50) 12.3 (00:00) 16 5.83 (23:40) 4.44 (20:00) 0 0 0 0 0
07-11-2020 20.4 (14:20) 13 (00:00) 16.7 7.22 (00:10) 3.89 (00:10) 1.4 1.4 0 0 0
06-11-2020 24.1 (13:50) 14.3 (00:00) 19.2 -- (--) -- (--) 1.4 0 0 0 1.4
05-11-2020 16.4 (23:50) 11.2 (00:00) 13.8 -- (--) -- (--) 0 0 0 0 0
04-11-2020 14.5 (15:40) 9.2 (00:00) 11.8 13.33 (19:10) 8.89 (18:20) 7.8 0 2 0 5.8
03-11-2020 13.9 (15:30) 9.8 (00:00) 11.8 9.44 (08:50) 5.28 (08:40) 3.4 0 1.4 1 1
02-11-2020 24.3 (11:10) 12.3 (00:00) 18.3 12.78 (12:00) 7.22 (12:00) 4 0 0 0.8 3.2
01-11-2020 22.3 (14:00) 16.1 (00:00) 19.2 4.17 (08:40) 3.33 (08:50) 0 0 0 0 0
31-10-2020 21.6 (15:10) 11.1 (00:00) 16.4 5.28 (14:40) 3.89 (14:40) 0 0 0 0 0
30-10-2020 20.9 (13:50) 11.2 (00:00) 16 6.67 (16:20) 5.28 (16:00) 0 0 0 0 0
29-10-2020 21.1 (14:20) 12 (00:00) 16.6 5.28 (11:40) 3.61 (12:00) 0 0 0 0 0
28-10-2020 21.4 (14:50) 13.5 (00:00) 17.4 6.39 (00:20) 3.89 (00:10) 0 0 0 0 0

Gráficas

Temp. máximas Temp. mínimas Temp. medias Precipitaciones Rachas de viento máximas Velocidades máximas media en intervalos de 10 minutos

Datos horarios

Fecha y hora oficial Temperatura (ºC) Velocidad del viento (km/h) Dirección del viento Racha (km/h) Dirección de racha Precipitación (mm) Presión (hPa) Tendencia (hPa) Humedad (%)
2020-11-26 23:00:00 11 10 Sudoeste 13 Sudoeste 0 1010.3 0.4 84
2020-11-26 22:00:00 11.7 0 Calma 7 Sudoeste 0 1010.2 0.7 84
2020-11-26 21:00:00 12.2 3 Sur 6 Sur 0 1010 -- 84
2020-11-26 20:00:00 12.7 7 Sudoeste 10 Sudoeste 0 1009.9 -- 83
2020-11-26 19:00:00 12.8 9 Sudoeste 10 Sudoeste 0 1009.5 -- 83
2020-11-26 18:00:00 14.7 4 Sudoeste 9 Noroeste 0 1009.4 -- 82
2020-11-26 17:00:00 15.8 2 Oeste 9 Noroeste 0 1009 -- 79
2020-11-26 16:00:00 16.3 0 Calma 10 Noroeste 0 1008.7 -- 75
2020-11-26 15:00:00 16.8 4 Norte 6 Norte 0 1008.5 -- 74
2020-11-26 14:00:00 16.9 2 Nordeste 12 Norte 0 1008.7 -- 74
2020-11-26 13:00:00 16.4 5 Noroeste 10 Noroeste 0 1008.6 -- 71
2020-11-26 12:00:00 15.4 3 Sudoeste 6 Sudoeste 0 1009.1 -- 76
2020-11-26 11:00:00 14.2 2 Este 16 Sudoeste 0 1009.1 -- 80
2020-11-26 10:00:00 12.2 3 Sur 10 Sudoeste 0 1008.9 -- 82
2020-11-26 09:00:00 11.7 4 Sur 9 Sudoeste 0 1008.3 -- 83
2020-11-26 08:00:00 11.1 7 Sudoeste 12 Sudoeste 0 1008.2 -- 83
2020-11-26 07:00:00 11.2 3 Sur 12 Sudoeste 0 1007.9 -- 84
2020-11-26 06:00:00 10.8 8 Sudoeste 12 Sudoeste 0 1007.8 -- 85
2020-11-26 05:00:00 10.7 7 Sudoeste 13 Sudoeste 0 1007.6 -- 84
2020-11-26 04:00:00 11 6 Sudoeste 13 Sudoeste 0 1007.7 -- 83
2020-11-26 03:00:00 11.4 3 Sudeste 9 Sudoeste 0 1007.9 -- 84
2020-11-26 02:00:00 11.6 5 Sur 12 Sudoeste 0 1007.7 -- 84
2020-11-26 01:00:00 12 4 Sudoeste 10 Sudoeste 0 1008.3 -- 81
2020-11-26 00:00:00 12.3 7 Sur 13 Sur 0 1008.1 -- 82
2020-11-25 23:00:00 12.1 7 Sudoeste 13 Sudoeste 0 1008.4 -- 82
2020-11-25 22:00:00 12.9 9 Sudoeste 11 Sudoeste 0 1008.7 -- 82
2020-11-25 21:00:00 13.8 5 Sudoeste 10 Sudoeste 0 1008.9 -- 81
2020-11-25 20:00:00 14.2 8 Sudeste 17 Este 0 1009 -- 81
2020-11-25 19:00:00 14.2 10 Sudeste 15 Sudeste 0 1009.4 -- 81
2020-11-25 18:00:00 14.7 13 Este 25 Este 0 1009.3 -- 80
2020-11-25 17:00:00 15 21 Este 28 Este 0 1009.2 -- 80
2020-11-25 16:00:00 14.9 19 Nordeste 23 Este 0 1009.4 -- 80
2020-11-25 15:00:00 15.2 15 Este 20 Este 0 1009.6 -- 79
2020-11-25 14:00:00 15.3 14 Este 19 Este 0 1010.1 -- 79
2020-11-25 13:00:00 15.6 10 Este 14 Este 0 1010.7 -- 78
2020-11-25 12:00:00 15.4 8 Este 12 Este 0 1011.3 -- 80
2020-11-25 11:00:00 14.4 3 Sudeste 7 Sudeste 0 1011.4 -- 82
2020-11-25 10:00:00 13.3 4 Sudeste 7 Sudeste 0 1011.3 -- 82
2020-11-25 09:00:00 13 3 Sur 7 Sudoeste 0 1011 -- 81
2020-11-25 08:00:00 13.3 3 Sudeste 9 Sudoeste 0 1010.7 -- 80
2020-11-25 07:00:00 13.2 7 Sudoeste 13 Sudoeste 0 1010.7 -- 79
2020-11-25 06:00:00 12.8 7 Sudoeste 17 Sudoeste 0 1010.5 -- 71
2020-11-25 05:00:00 12.4 14 Oeste 23 Oeste 0 1010.1 -- 63
2020-11-25 04:00:00 11.5 14 Sudoeste 17 Sudoeste 0 1009.9 -- 60
2020-11-25 03:00:00 10.5 10 Sudoeste 18 Sudoeste 0 1009.8 -- 66
2020-11-25 02:00:00 10.3 3 Este 6 Sudoeste 0 1010.5 -- 70
2020-11-25 01:00:00 10.1 3 Sudeste 9 Noroeste 0 1011.4 -- 71
2020-11-25 00:00:00 9.7 2 Sur 13 Sudoeste 0 1011.8 -- 70
2020-11-24 23:00:00 10.6 4 Oeste 15 Sudoeste 0 1012.1 -- 66
2020-11-24 22:00:00 10.9 13 Sudoeste 17 Sudoeste 0 1012.7 -- 67
2020-11-24 21:00:00 12.2 8 Sudoeste 12 Sudoeste 0 1013.2 -- 62
2020-11-24 20:00:00 14.5 5 Sur 19 Este 0 1013.5 -- 54
2020-11-24 19:00:00 15.2 13 Sudeste 22 Sudeste 0 1014.1 -- 54
2020-11-24 18:00:00 14.4 13 Sudeste 18 Sudeste 0 1014.4 -- 59
2020-11-24 17:00:00 15.5 3 Este 12 Este 0 1014.9 -- 71
2020-11-24 16:00:00 16.4 9 Este 17 Este 0 1015.2 -- 69
2020-11-24 15:00:00 18.5 15 Este 17 Este 0 1015.6 -- 61
2020-11-24 14:00:00 18.3 8 Este 11 Este 0 1016.7 -- 62
2020-11-24 13:00:00 17 5 Noroeste 11 Noroeste 0 1017.9 -- 64
2020-11-24 12:00:00 16.6 6 Oeste 10 Oeste 0 1018.9 -- 59
2020-11-24 11:00:00 14.5 5 Sudoeste 13 Oeste 0 1019.2 -- 60
2020-11-24 10:00:00 13.8 9 Oeste 13 Oeste 0 1019.1 -- 60
2020-11-24 09:00:00 10.5 9 Sudoeste 15 Sudoeste 0 1018.8 -- 67
2020-11-24 08:00:00 9.5 7 Sudoeste 14 Oeste 0 1018.3 -- 72
2020-11-24 07:00:00 10.2 8 Sudoeste 11 Sudoeste 0 1018 -- 71
2020-11-24 06:00:00 10.1 9 Sudoeste 13 Oeste 0 1018 -- 71
2020-11-24 05:00:00 10.1 6 Sudoeste 13 Sudoeste 0 1018.3 -- 70
2020-11-24 04:00:00 10.3 10 Sudoeste 14 Sudoeste 0 1018.9 -- 70
2020-11-24 03:00:00 10.6 9 Sudoeste 13 Sudoeste 0 1019.5 -- 69
2020-11-24 02:00:00 9.6 11 Sudoeste 15 Sudoeste 0 1020.4 -- 73
2020-11-24 01:00:00 9.9 10 Sudoeste 13 Sudoeste 0 1021.2 -- 77
2020-11-24 00:00:00 9.5 9 Sudoeste 13 Sudoeste 0 1021.9 -- 79
2020-11-23 23:00:00 9.9 8 Sudoeste 12 Sudoeste 0 1022.5 -- 78
2020-11-23 22:00:00 10.7 5 Sur 8 Sudoeste 0 1023.1 -- 75
2020-11-23 21:00:00 11.4 5 Sudeste 8 Sudeste 0 1023.6 -- 75
2020-11-23 20:00:00 11.1 5 Sur 8 Sudoeste 0 1023.9 -- 77
2020-11-23 19:00:00 12.3 5 Sur 13 Este 0 1024.2 -- 74
2020-11-23 18:00:00 13.7 6 Sudeste 11 Sudeste 0 1024.2 -- 71
2020-11-23 17:00:00 14.6 6 Sudeste 14 Este 0 1024.1 -- 70
2020-11-23 16:00:00 15.2 8 Este 18 Este 0 1024.4 -- 66
2020-11-23 15:00:00 16.4 14 Este 19 Este 0 1024.9 -- 61
2020-11-23 14:00:00 16.9 10 Este 15 Este 0 1025.5 -- 61
2020-11-23 13:00:00 15.7 5 Este 8 Nordeste 0 1026.4 -- 68
2020-11-23 12:00:00 16.1 4 Este 6 Noroeste 0 1027.2 -- 65
2020-11-23 11:00:00 14.4 3 Oeste 9 Sudoeste 0 1027.2 -- 74
2020-11-23 10:00:00 11.4 9 Sudoeste 13 Sudoeste 0 1027 -- 83
2020-11-23 09:00:00 9.2 8 Sudoeste 14 Sudoeste 0 1027.1 -- 86
2020-11-23 08:00:00 8.1 8 Sudoeste 12 Sudoeste 0 1026.8 -- 86
2020-11-23 07:00:00 8.7 10 Sudoeste 12 Sudoeste 0 1026.8 -- 86
2020-11-23 06:00:00 8.8 6 Sudoeste 10 Sudoeste 0 1026.7 -- 87
2020-11-23 05:00:00 8.8 3 Sudoeste 7 Sudoeste 0 1026.7 -- 87
2020-11-23 04:00:00 9.4 3 Sudeste 16 Sudoeste 0 1027.1 -- 87
2020-11-23 03:00:00 8.8 8 Sudoeste 9 Sudoeste 0 1027.4 -- 86
2020-11-23 02:00:00 9.1 3 Sur 11 Sudoeste 0 1027.5 -- 86
2020-11-23 01:00:00 9.3 8 Sudoeste 10 Sudoeste 0 1027.7 -- 87
2020-11-23 00:00:00 9.4 3 Sur 9 Sudoeste 0 1027.6 -- 86
2020-11-22 23:00:00 9.9 8 Sudoeste 13 Sudoeste 0 1027.8 -- 85
2020-11-22 22:00:00 9.8 8 Sudoeste 16 Sudoeste 0 1027.6 -- 84
2020-11-22 21:00:00 10.1 11 Sudoeste 14 Sudoeste 0 1027.6 -- 84
2020-11-22 20:00:00 10.8 3 Sur 13 Sudoeste 0 1027 -- 82
2020-11-22 19:00:00 11.2 5 Sudoeste 8 Sudoeste 0 1026.6 -- 80
2020-11-22 18:00:00 13.1 3 Sur 8 Sur 0 1026.2 -- 75
2020-11-22 17:00:00 14.2 3 Norte 6 Norte 0 1026 -- 72
2020-11-22 16:00:00 15.1 3 Nordeste 6 Nordeste 0 1025.5 -- 68
2020-11-22 15:00:00 17.6 4 Nordeste 8 Nordeste 0 1025.6 -- 62
2020-11-22 14:00:00 16.8 5 Nordeste 7 Nordeste 0 1026.1 -- 65
2020-11-22 13:00:00 16.3 4 Norte 7 Noroeste 0 1026.6 -- 66
2020-11-22 12:00:00 16.3 2 Norte 6 Sudoeste 0 1026.9 -- 60
2020-11-22 11:00:00 15.3 4 Sudoeste 11 Sudoeste 0 1027.1 -- 62
2020-11-22 10:00:00 11.8 9 Sudoeste 12 Sudoeste 0 1026.7 -- 69
2020-11-22 09:00:00 8.8 8 Sudoeste -- -- 0 1026.3 -- 75
2020-11-22 08:00:00 8.1 10 Sudoeste 14 Sudoeste 0 1025.8 -- 76
2020-11-22 07:00:00 8.4 12 Sudoeste 14 Sudoeste 0 1025.3 -- 77
2020-11-22 06:00:00 8.3 9 Sudoeste 14 Sudoeste 0 1025 -- 76
2020-11-22 05:00:00 9 11 Sudoeste 16 Sudoeste 0 1024.8 -- 74
2020-11-22 04:00:00 7.7 13 Sudoeste 16 Sudoeste 0 1024.7 -- 76
2020-11-22 03:00:00 8.6 11 Sudoeste 15 Sudoeste 0 1024.3 -- 77
2020-11-22 02:00:00 7.6 13 Sudoeste 14 Sudoeste 0 1024.5 -- 79
2020-11-22 01:00:00 8 10 Sudoeste 14 Sudoeste 0 1024.4 -- 78
2020-11-22 00:00:00 8.2 12 Sudoeste 14 Sudoeste 0 1024.5 -- 79
2020-11-21 23:00:00 8 10 Sudoeste -- -- 0 1024.8 -- 78
2020-11-21 22:00:00 9.7 5 Sudeste 11 Este 0 1025.1 -- 72
2020-11-21 21:00:00 10.8 5 Sudeste 17 Este 0 1025.6 -- 69
2020-11-21 20:00:00 11.5 10 Sudeste 16 Este 0 1025.6 -- 69
2020-11-21 19:00:00 11.5 8 Sudeste 14 Este 0 1025.6 -- 69
2020-11-21 18:00:00 12.7 7 Sudeste 16 Este 0 1025.6 -- 66
2020-11-21 17:00:00 13.9 10 Este 24 Este 0 1025.7 -- 61
2020-11-21 16:00:00 14.2 15 Este 27 Este 0 1025.8 -- 59
2020-11-21 15:00:00 16.8 12 Este 18 Este 0 1026.2 -- 46
2020-11-21 14:00:00 16.2 10 Este 19 Este 0 1026.5 -- 51
2020-11-21 13:00:00 14.4 14 Este 23 Este 0 1027 -- 54
2020-11-21 12:00:00 14.3 13 Este 30 Este 0 1027.8 -- 54
2020-11-21 11:00:00 13.3 11 Sudeste 21 Este 0 1028.3 -- 57
2020-11-21 10:00:00 11.9 8 Sudeste 19 Sudeste 0 1028.3 -- 62
2020-11-21 09:00:00 9.4 8 Este 13 Este 0 1028.2 -- 69
2020-11-21 08:00:00 9 5 Sudeste 27 Este 0 1028.7 -- 68
2020-11-21 07:00:00 10 14 Este 24 Este 0 1028.6 -- 70
2020-11-21 06:00:00 10.1 13 Este 25 Este 0 1028.5 -- 71
2020-11-21 05:00:00 9.8 10 Este 15 Este 0 1028.7 -- 76
2020-11-21 04:00:00 9.7 7 Sudeste 16 Sudeste 0 1028.9 -- 75
2020-11-21 03:00:00 9.9 7 Sudeste 21 Este 0 1029.1 -- 76
2020-11-21 02:00:00 10.3 13 Este 27 Este 0 1029.5 -- 77
2020-11-21 01:00:00 11.2 18 Este 27 Este 0 1030.4 -- 78
2020-11-21 00:00:00 10.4 9 Sudeste 24 Este 0 1031 -- 75
2020-11-20 23:00:00 12 21 Este 32 Este 0 1031.2 -- 75
2020-11-20 22:00:00 12.2 20 Este 31 Este 0 1031.6 -- 74
2020-11-20 21:00:00 12.4 18 Este 24 Este 0 1032.1 -- 71
2020-11-20 20:00:00 12.2 14 Sudeste 24 Sudeste 0 1032.8 -- 70
2020-11-20 19:00:00 12.1 12 Sudeste 18 Sudeste 0 1033 -- 71
2020-11-20 18:00:00 13.2 9 Sudeste 34 Este 0 1032.3 -- 68
2020-11-20 17:00:00 14.2 23 Este 34 Este 0 1031.8 -- 67
2020-11-20 16:00:00 14.4 23 Este 30 Este 0 1033 -- 63
2020-11-20 15:00:00 16.7 24 Este 33 Este 0 1032.6 -- 52
2020-11-20 14:00:00 16.4 27 Este 33 Este 0 1032.9 -- 56
2020-11-20 13:00:00 15.7 25 Este 32 Este 0 1034.2 -- 57
2020-11-20 12:00:00 16.1 24 Este 34 Este 0 1035.4 -- 52
2020-11-20 11:00:00 16.3 13 Este 18 Este 0 1035.2 -- 54
2020-11-20 10:00:00 14.1 12 Sudeste 18 Sudeste 0 1035.6 -- 61
2020-11-20 09:00:00 10.9 9 Sudeste 13 Sudeste 0 1035.4 -- 73
2020-11-20 08:00:00 11.6 6 Sudeste 15 Sudeste 0 1035.3 -- 74
2020-11-20 07:00:00 11.5 7 Sudeste 14 Sudeste 0 1035.3 -- 74
2020-11-20 06:00:00 11 4 Sudeste 13 Este 0 1035.6 -- 75
2020-11-20 05:00:00 11 5 Sudeste 10 Sudeste 0 1035.6 -- 78
2020-11-20 04:00:00 10.6 2 Sudeste 9 Sudeste 0 1036 -- 78
2020-11-20 03:00:00 11.3 4 Sudeste 10 Este 0 1036.3 -- 76
2020-11-20 02:00:00 12.3 2 Sur 12 Sur 0 1036.5 -- 73
2020-11-20 01:00:00 12.3 8 Sudeste 23 Este 0 1037.1 -- 72
2020-11-20 00:00:00 12.4 9 Sudeste 18 Sudeste 0 1037.4 -- 74
2020-11-19 23:00:00 11.9 8 Sudeste 16 Sudeste 0 1037.4 -- 78
2020-11-19 22:00:00 11.6 9 Sudeste 20 Sudeste 0.2 1037.2 -- 83
2020-11-19 21:00:00 11.4 13 Sudeste 22 Sudeste 0 1037.3 -- 86
2020-11-19 20:00:00 11.7 8 Sudeste 17 Este 0.2 1037.4 -- 87
2020-11-19 19:00:00 12.3 12 Este 20 Nordeste 0 1037.3 -- 85
2020-11-19 18:00:00 12.1 5 Sudeste 13 Sudeste 0 1037 -- 85
2020-11-19 17:00:00 12.5 7 Sudeste 15 Este 0.2 1037.2 -- 86
2020-11-19 16:00:00 13 3 Sudeste 13 Sudeste 0 1037.2 -- 85
2020-11-19 15:00:00 13.2 7 Sur 12 Sur 0.2 1037 -- 86
2020-11-19 14:00:00 13.5 4 Sudeste 9 Este 0 1036.3 -- 87
2020-11-19 13:00:00 13.6 5 Este 13 Este 0.6 1036.5 -- 88
2020-11-19 12:00:00 12.9 9 Nordeste 18 Nordeste 1.6 1036.9 -- 89
2020-11-19 11:00:00 13.1 5 Nordeste 12 Nordeste 0.4 1036.8 -- 88
2020-11-19 10:00:00 12.8 5 Nordeste 12 Noroeste 0.6 1035.8 -- 89
2020-11-19 09:00:00 13 3 Oeste 9 Norte 1 1036.1 -- 89
2020-11-19 08:00:00 13.4 5 Oeste 18 Norte 1 1035.4 -- 89
2020-11-19 07:00:00 13.8 9 Norte 21 Noroeste 1.6 1033.9 -- 89
2020-11-19 06:00:00 14.5 9 Noroeste 16 Noroeste 0.8 1032.6 -- 89
2020-11-19 05:00:00 15 8 Noroeste 13 Noroeste 0.6 1032.1 -- 87
2020-11-19 04:00:00 15.2 5 Noroeste 15 Oeste 2.6 1031.7 -- 87
2020-11-19 03:00:00 15.7 13 Noroeste 35 Noroeste 0.2 1030.8 -- 85
2020-11-19 02:00:00 16.2 8 Oeste 15 Sudoeste 0 1029.9 -- 73
2020-11-19 01:00:00 16.3 7 Sur 24 Oeste 0 1029 -- 74
2020-11-19 00:00:00 17 19 Oeste 31 Oeste 0 1028.7 -- 67
2020-11-18 23:00:00 15.9 12 Sudoeste 16 Sudoeste 0 1027.8 -- 64
2020-11-18 22:00:00 15.2 11 Sudoeste 14 Sudoeste 0 1026.8 -- 66
2020-11-18 21:00:00 16.1 3 Oeste 13 Sudeste 0 1025.8 -- 65
2020-11-18 20:00:00 16.9 8 Sudeste 12 Sudeste 0 1025 -- 62
2020-11-18 19:00:00 16.6 8 Sudeste 13 Sudeste 0 1024.5 -- 63
2020-11-18 18:00:00 16.7 2 Sudeste 10 Norte 0 1023.8 -- 67
2020-11-18 17:00:00 17.5 5 Nordeste 9 Nordeste 0 1023.3 -- 68
2020-11-18 16:00:00 18.8 5 Este 14 Este 0 1022.9 -- 68
2020-11-18 15:00:00 21 3 Nordeste 9 Norte 0 1022.5 -- 61
2020-11-18 14:00:00 21 3 Norte 6 Norte 0 1022.2 -- 55
2020-11-18 13:00:00 20.9 4 Este 8 Este 0 1022.3 -- 54
2020-11-18 12:00:00 19.9 2 Nordeste 4 Este 0 1022.6 -- 56
2020-11-18 11:00:00 19 2 Norte 12 Sudoeste 0 1022.5 -- 60
2020-11-18 10:00:00 16.7 10 Sudoeste 12 Sudoeste 0 1022 -- 58
2020-11-18 09:00:00 13.3 4 Sudeste 6 Sur 0 1021.1 -- 69
2020-11-18 08:00:00 12.1 5 Sudoeste 9 Sudoeste 0 1020.5 -- 70
2020-11-18 07:00:00 12 4 Sudoeste 11 Oeste 0 1020 -- 72
2020-11-18 06:00:00 12.5 4 Oeste 14 Sudoeste 0 1019.4 -- 70
2020-11-18 05:00:00 12.1 9 Sudoeste 14 Sudoeste 0 1018.9 -- 73
2020-11-18 04:00:00 11.7 3 Noroeste 9 Sudoeste 0 1018.8 -- 75
2020-11-18 03:00:00 11.6 3 Sudoeste 11 Sudoeste 0 1018.9 -- 77
2020-11-18 02:00:00 12.1 3 Sur 7 Sur 0 1019.2 -- 78
2020-11-18 01:00:00 12.5 4 Sudoeste 10 Sudoeste 0 1019.4 -- 75
2020-11-18 00:00:00 11.9 8 Sudoeste 12 Sudoeste 0 1019.7 -- 78
2020-11-17 23:00:00 11.9 4 Sudoeste 11 Sudoeste 0 1019.7 -- 78
2020-11-17 22:00:00 12 10 Sudoeste 13 Sudoeste 0 1019.9 -- 79
2020-11-17 21:00:00 12.3 9 Sudoeste 15 Sudoeste 0 1019.9 -- 81
2020-11-17 20:00:00 12.6 5 Sudoeste 11 Sudoeste 0 1019.8 -- 81
2020-11-17 19:00:00 13.1 7 Sudoeste 10 Sudoeste 0 1020 -- 80
2020-11-17 18:00:00 14.8 3 Sur 7 Sudoeste 0 1019.8 -- 77
2020-11-17 17:00:00 15.9 5 Este 13 Este 0 1020 -- 74
2020-11-17 16:00:00 16.3 10 Este 14 Este 0 1020.1 -- 69
2020-11-17 15:00:00 18.4 11 Este 17 Este 0 1020.5 -- 61
2020-11-17 14:00:00 18.1 11 Este 21 Este 0 1021.1 -- 62
2020-11-17 13:00:00 17.1 11 Este 16 Este 0 1021.8 -- 67
2020-11-17 12:00:00 17.6 4 Nordeste 6 Este 0 1022.8 -- 65
2020-11-17 11:00:00 16.8 3 Nordeste 6 Sudoeste 0 1023.2 -- 70
2020-11-17 10:00:00 13.7 0 Calma 9 Sudoeste 0 1023.3 -- 77
2020-11-17 09:00:00 10.6 8 Sudoeste 13 Sudoeste 0 1022.9 -- 83
2020-11-17 08:00:00 9.3 9 Sudoeste 14 Sudoeste 0 1022.8 -- 83
2020-11-17 07:00:00 10.2 5 Sur 8 Sudoeste 0 1022.9 -- 82
2020-11-17 06:00:00 10.1 9 Sudoeste 13 Sudoeste 0 1023.1 -- 79
2020-11-17 05:00:00 10.3 10 Sudoeste 14 Sudoeste 0 1022.9 -- 81
2020-11-17 04:00:00 9.5 10 Sudoeste 13 Sudoeste 0 1023.4 -- 83
2020-11-17 03:00:00 10.2 3 Sur 13 Sudoeste 0 1023.7 -- 82
2020-11-17 02:00:00 10.4 3 Sudoeste 12 Sudoeste 0 1024.3 -- 83
2020-11-17 01:00:00 10.2 5 Sudoeste 12 Sudoeste 0 1025.2 -- 82
2020-11-17 00:00:00 10.7 10 Sudoeste 12 Sudoeste 0 1025.3 -- 81
2020-11-16 23:00:00 11.1 10 Sudoeste 13 Sudoeste 0 1025.4 -- 82
2020-11-16 22:00:00 11.3 5 Sur 8 Sudoeste 0 1025.4 -- 80
2020-11-16 21:00:00 11.3 3 Sur 8 Sur 0 1025.2 -- 80
2020-11-16 20:00:00 11.9 3 Sudeste 9 Sudeste 0 1025.1 -- 79
2020-11-16 19:00:00 12.7 0 Calma 8 Sur 0 1025.1 -- 75
2020-11-16 18:00:00 14.3 4 Sur 11 Este 0 1025.1 -- 69
2020-11-16 17:00:00 15.4 9 Este 12 Este 0 1024.8 -- 66
2020-11-16 16:00:00 16.3 7 Nordeste 10 Nordeste 0 1024.8 -- 59
2020-11-16 15:00:00 17.8 6 Nordeste 11 Nordeste 0 1024.6 -- 54
2020-11-16 14:00:00 17.4 6 Norte 10 Nordeste 0 1024.7 -- 53
2020-11-16 13:00:00 17.1 6 Norte 9 Nordeste 0 1024.6 -- 55
2020-11-16 12:00:00 17.8 2 Nordeste 5 Sur 0 1025.2 -- 56
2020-11-16 11:00:00 16.6 4 Sudoeste 9 Sudoeste 0 1025.1 -- 61
2020-11-16 10:00:00 16.2 5 Sur 9 Sudoeste 0 1025 -- 66
2020-11-16 09:00:00 13.7 7 Sudoeste 10 Sudoeste 0 1024.3 -- 70
2020-11-16 08:00:00 13.4 3 Sudoeste 8 Sudoeste 0 1023.7 -- 71
2020-11-16 07:00:00 13.7 3 Oeste 8 Oeste 0 1023.7 -- 72
2020-11-16 06:00:00 13.8 4 Oeste 9 Oeste 0 1023 -- 71
2020-11-16 05:00:00 14 4 Sudoeste 10 Oeste 0 1022.4 -- 71
2020-11-16 04:00:00 13.9 5 Oeste 9 Oeste 0 1022.9 -- 74
2020-11-16 03:00:00 13.9 4 Oeste 11 Sudoeste 0 1022.1 -- 75
2020-11-16 02:00:00 14.1 7 Oeste 16 Sudoeste 0 1021.9 -- 75
2020-11-16 01:00:00 14 8 Sudoeste 20 Sudoeste 0 1021.6 -- 78
2020-11-16 00:00:00 14 9 Sudoeste 24 Sudoeste 0 1021 -- 80
2020-11-15 23:00:00 13.5 7 Oeste 19 Oeste 0 1021 -- 85
2020-11-15 22:00:00 13.5 10 Oeste 23 Sudoeste 0.2 1020.6 -- 84
2020-11-15 21:00:00 13.5 9 Oeste 18 Oeste 0 1019.9 -- 85
2020-11-15 20:00:00 13 8 Oeste 21 Sudoeste 0.4 1019.2 -- 87
2020-11-15 19:00:00 13.1 10 Oeste 40 Oeste 2.2 1018.3 -- 88
2020-11-15 18:00:00 14.1 20 Oeste 36 Oeste 2.6 1017.3 -- 88
2020-11-15 17:00:00 14.6 20 Oeste 38 Noroeste 1.4 1016.3 -- 86
2020-11-15 16:00:00 15 6 Sudoeste 32 Oeste 0.2 1015.5 -- 85
2020-11-15 15:00:00 15 12 Oeste 38 Oeste 0.6 1014.6 -- 85
2020-11-15 14:00:00 15.3 15 Oeste 37 Oeste 1 1014.6 -- 86
2020-11-15 13:00:00 16.2 13 Oeste 28 Oeste 0.2 1013.6 -- 83
2020-11-15 12:00:00 17.6 18 Noroeste 31 Noroeste 0 1012.7 -- 75
2020-11-15 11:00:00 19.3 6 Oeste 15 Sudoeste 0.2 1011.6 -- 60
2020-11-15 10:00:00 19 6 Noroeste 14 Oeste 0 1009.6 -- 61
2020-11-15 09:00:00 21.4 4 Sudoeste 24 Oeste 0 1008.7 -- 44
2020-11-15 08:00:00 17.3 6 Sur 19 Sudoeste 0 1008.4 -- 55
2020-11-15 07:00:00 16.3 6 Sur 15 Sudoeste 0 1008.7 -- 58
2020-11-15 06:00:00 15.6 3 Oeste 10 Sudoeste 0 1008.5 -- 59
2020-11-15 05:00:00 15.7 5 Sur 14 Sudoeste 0 1009.2 -- 57
2020-11-15 04:00:00 17 9 Sudoeste 18 Sudoeste 0 1009.5 -- 51
2020-11-15 03:00:00 14.8 10 Sudoeste 17 Sudoeste 0 1009.9 -- 61
2020-11-15 02:00:00 14.8 7 Sudoeste 15 Sudoeste 0 1010.3 -- 61
2020-11-15 01:00:00 15.1 3 Sur 9 Sudoeste 0 1010.9 -- 61
2020-11-15 00:00:00 15.3 5 Sur 14 Sudoeste 0 1011.6 -- 59
2020-11-14 23:00:00 14.7 3 Sudoeste 10 Sudoeste 0 1011.8 -- 63
2020-11-14 22:00:00 14.6 5 Sur 13 Sudoeste 0 1011.8 -- 61
2020-11-14 21:00:00 14.5 3 Sur 12 Sudoeste 0 1011.9 -- 60
2020-11-14 20:00:00 15.2 4 Sur 17 Sudoeste 0 1012.3 -- 59
2020-11-14 19:00:00 15.3 9 Sudoeste 14 Sudoeste 0 1012.2 -- 62
2020-11-14 18:00:00 16 8 Sudoeste 13 Sudoeste 0 1011.8 -- 67
2020-11-14 17:00:00 17.6 2 Norte 13 Este 0 1011.8 -- 69
2020-11-14 16:00:00 18.6 4 Sudeste 8 Sudeste 0 1011.5 -- 62
2020-11-14 15:00:00 19.7 3 Sudeste 12 Noroeste 0 1011.7 -- 65
2020-11-14 14:00:00 19.4 6 Noroeste 10 Noroeste 0 1011.8 -- 65
2020-11-14 13:00:00 19.2 6 Oeste 17 Noroeste 0 1012.6 -- 53
2020-11-14 12:00:00 18.7 5 Noroeste 13 Noroeste 0 1012.7 -- 57
2020-11-14 11:00:00 17.9 4 Sudoeste 13 Sur 0 1012.5 -- 54
2020-11-14 10:00:00 15.7 8 Sudoeste 10 Sudoeste 0 1012.7 -- 57
2020-11-14 09:00:00 12.3 3 Sudoeste 14 Sudoeste 0 1012.6 -- 67
2020-11-14 08:00:00 11.9 9 Sudoeste 13 Sudoeste 0 1012.5 -- 65
2020-11-14 07:00:00 11.8 4 Sur 9 Sudoeste 0 1012.5 -- 68
2020-11-14 06:00:00 11.2 6 Sudoeste 9 Sudoeste 0 1012.9 -- 72
2020-11-14 05:00:00 11.6 2 Sudoeste 8 Sudeste 0 1013 -- 71
2020-11-14 04:00:00 11.6 2 Sudeste 9 Sudoeste 0 1013.5 -- 74
2020-11-14 03:00:00 12.1 6 Sudoeste 15 Sudoeste 0 1013.9 -- 71
2020-11-14 02:00:00 11.6 7 Sudoeste 15 Sudoeste 0 1014.2 -- 75
2020-11-14 01:00:00 11.3 11 Sudoeste 17 Sudoeste 0 1014.5 -- 77
2020-11-14 00:00:00 12.4 5 Sudoeste 15 Sudoeste 0 1014.5 -- 74
2020-11-13 23:00:00 13.3 9 Sudoeste 15 Sudoeste 0 1014.9 -- 71
2020-11-13 22:00:00 13 12 Sudoeste 15 Sudoeste 0 1015.2 -- 71
2020-11-13 21:00:00 13.2 9 Sudoeste 14 Sudoeste 0 1015.5 -- 70
2020-11-13 20:00:00 14.1 3 Sudoeste 8 Sudoeste 0 1015.6 -- 70
2020-11-13 19:00:00 15.4 2 Sur 6 Sudoeste 0 1015.5 -- 67
2020-11-13 18:00:00 16.5 3 Este 15 Este 0 1015.2 -- 68
2020-11-13 17:00:00 18 13 Este 21 Este 0 1015.2 -- 64
2020-11-13 16:00:00 18.8 11 Este 16 Este 0 1015.6 -- 64
2020-11-13 15:00:00 21 11 Este 13 Nordeste 0 1016 -- 60
2020-11-13 14:00:00 20.4 4 Norte 13 Nordeste 0 1016.6 -- 62
2020-11-13 13:00:00 19.7 4 Este 8 Noroeste 0 1016.5 -- 64
2020-11-13 12:00:00 19.8 3 Norte 10 Nordeste 0 1017 -- 59
2020-11-13 11:00:00 19.3 2 Oeste 11 Sudoeste 0 1017 -- 59
2020-11-13 10:00:00 16.2 3 Sudeste 9 Este 0 1016.9 -- 70
2020-11-13 09:00:00 14.7 0 Calma 6 Sudoeste 0 1016.7 -- 71
2020-11-13 08:00:00 14.2 3 Sur 6 Sudoeste 0 1016.4 -- 73
2020-11-13 07:00:00 14.7 3 Sudeste 10 Sudoeste 0 1016.4 -- 71
2020-11-13 06:00:00 15.9 9 Sudoeste 13 Sudoeste 0 1016.4 -- 65
2020-11-13 05:00:00 16.5 9 Sudoeste 12 Sudoeste 0 1016.1 -- 63
2020-11-13 04:00:00 15.5 8 Sudoeste 13 Sudoeste 0 1016 -- 68
2020-11-13 03:00:00 13.2 2 Oeste 9 Sudoeste 0 1015.7 -- 79
2020-11-13 02:00:00 13.7 7 Sudoeste 10 Sudoeste 0 1015.5 -- 79
2020-11-13 01:00:00 13.7 7 Sudoeste 13 Sur 0 1015.7 -- 80
2020-11-13 00:00:00 14.1 6 Sudoeste 12 Sudoeste 0 1015.6 -- 79
2020-11-12 23:00:00 13.9 9 Sudoeste 12 Sudoeste 0 1015.6 -- 81
2020-11-12 22:00:00 13.5 9 Sudoeste 13 Sudoeste 0 1015.9 -- 84
2020-11-12 21:00:00 13.5 11 Sudoeste 14 Sudoeste 0 1015.6 -- 83
2020-11-12 20:00:00 13.8 10 Sudoeste 13 Sudoeste 0 1015.9 -- 83
2020-11-12 19:00:00 15.4 3 Este 12 Este 0 1015.6 -- 77
2020-11-12 18:00:00 16 7 Sudeste 27 Este 0 1015.7 -- 77
2020-11-12 17:00:00 16.6 18 Este 26 Este 0 1016.1 -- 78
2020-11-12 16:00:00 17.2 17 Este 22 Este 0 1016.6 -- 76
2020-11-12 15:00:00 19.4 14 Este 19 Este 0 1017.2 -- 69
2020-11-12 14:00:00 20.7 9 Nordeste 12 Este 0 1017.9 -- 66
2020-11-12 13:00:00 19.6 7 Nordeste 10 Nordeste 0 1018.5 -- 71
2020-11-12 12:00:00 19.5 8 Nordeste 12 Nordeste 0 1019.6 -- 73
2020-11-12 11:00:00 18.4 6 Este 9 Este 0 1020.1 -- 74
2020-11-12 10:00:00 16.2 3 Este 10 Oeste 0 1020.1 -- 82
2020-11-12 09:00:00 15.2 7 Oeste 11 Oeste 0 1020.1 -- 81
2020-11-12 08:00:00 14.8 7 Sudoeste 12 Sur 0 1019.4 -- 77
2020-11-12 07:00:00 15.1 6 Sudoeste 10 Sudoeste 0 1018.9 -- 72
2020-11-12 06:00:00 14.7 5 Sur 8 Oeste 0 1019 -- 68
2020-11-12 05:00:00 14.8 2 Oeste 11 Sudoeste 0 1018.8 -- 66
2020-11-12 04:00:00 14.8 8 Sudoeste 10 Sudoeste 0 1019 -- 60
2020-11-12 03:00:00 13.7 9 Sudoeste 14 Sudoeste 0 1019.2 -- 67
2020-11-12 02:00:00 14.3 8 Oeste 12 Sudoeste 0 1019.1 -- 64
2020-11-12 01:00:00 14.1 4 Sudoeste 8 Sudoeste 0 1019.3 -- 67
2020-11-12 00:00:00 14.4 5 Sudoeste 13 Sudoeste 0 1019.1 -- 65
2020-11-11 23:00:00 14.8 3 Este 7 Este 0 1019 -- 68
2020-11-11 22:00:00 14.7 0 Calma 10 Sur 0 1019.1 -- 66
2020-11-11 21:00:00 14.5 7 Sudoeste 9 Sudoeste 0 1018.5 -- 60
2020-11-11 20:00:00 14.4 5 Sudoeste 14 Sudoeste 0 1017.9 -- 63
2020-11-11 19:00:00 15.2 2 Sur 13 Sudoeste 0 1016.9 -- 63
2020-11-11 18:00:00 16 6 Sur 13 Sudeste 0 1016.9 -- 59
2020-11-11 17:00:00 16.9 6 Este 9 Este 0 1016.8 -- 75
2020-11-11 16:00:00 17.2 6 Este 15 Este 0 1016.9 -- 73
2020-11-11 15:00:00 17.1 8 Este 13 Este 0 1017 -- 75
2020-11-11 14:00:00 16.4 8 Nordeste 10 Nordeste 0 1017.2 -- 75
2020-11-11 13:00:00 16.5 2 Nordeste 9 Este 0 1018.4 -- 75
2020-11-11 12:00:00 16.6 4 Nordeste 6 Este 0 1018.7 -- 75
2020-11-11 11:00:00 15 3 Sudoeste 8 Sudoeste 0 1019.3 -- 79
2020-11-11 10:00:00 12.6 5 Sudoeste 11 Sudoeste 0 1019.3 -- 82
2020-11-11 09:00:00 11.3 6 Sudoeste 15 Sudoeste 0 1019.8 -- 86
2020-11-11 08:00:00 10.3 8 Sudoeste 11 Sudoeste 0 1019.9 -- 87
2020-11-11 07:00:00 10.4 5 Sudoeste 10 Sudoeste 0 1020 -- 86
2020-11-11 06:00:00 11.2 7 Sudoeste 11 Sudoeste 0 1020.6 -- 87
2020-11-11 05:00:00 11.1 4 Sur 15 Sudoeste 0 1020.9 -- 86
2020-11-11 04:00:00 10.9 5 Sudoeste 9 Sudoeste 0 1021.4 -- 85
2020-11-11 03:00:00 11.5 3 Sur 9 Sudoeste 0 1022 -- 85
2020-11-11 02:00:00 11.7 6 Sudoeste 10 Sudoeste 0 1022.4 -- 83
2020-11-11 01:00:00 13.1 7 Sur 11 Sudoeste 0 1023.4 -- 81
2020-11-11 00:00:00 12.9 9 Sudoeste 12 Sudoeste 0 1023.9 -- 83
2020-11-10 23:00:00 14.1 5 Sudoeste 8 Sudoeste 0 1024.7 -- 82
2020-11-10 22:00:00 14.9 5 Sudoeste 8 Sudoeste 0 1024.5 -- 81
2020-11-10 21:00:00 15.3 5 Sudoeste 8 Sudoeste 0 1024.9 -- 80
2020-11-10 20:00:00 15.5 4 Sudoeste 10 Sudeste 0 1024.9 -- 78
2020-11-10 19:00:00 15.5 5 Sudeste 10 Sudeste 0 1024.9 -- 78
2020-11-10 18:00:00 15.9 10 Este 21 Este 0 1025.1 -- 78
2020-11-10 17:00:00 16 13 Este 21 Este 0 1024.9 -- 77
2020-11-10 16:00:00 16.4 10 Este 17 Este 0 1025.3 -- 73
2020-11-10 15:00:00 16.6 12 Este 17 Este 0 1025 -- 73
2020-11-10 14:00:00 17.2 6 Nordeste 8 Nordeste 0 1025.9 -- 70
2020-11-10 13:00:00 17 6 Nordeste 10 Norte 0 1026.4 -- 69
2020-11-10 12:00:00 18.2 8 Este 11 Este 0 1026.9 -- 70
2020-11-10 11:00:00 15.8 3 Sudeste 8 Sudoeste 0 1026.9 -- 76
2020-11-10 10:00:00 13.9 6 Sudoeste 8 Sudoeste 0 1027 -- 81
2020-11-10 09:00:00 13.3 0 Calma 13 Sudoeste 0 1026.4 -- 80
2020-11-10 08:00:00 12.4 12 Sudoeste 14 Sudoeste 0 1025.6 -- 83
2020-11-10 07:00:00 13.4 5 Sudoeste 9 Sudoeste 0 1025 -- 81
2020-11-10 06:00:00 14.1 5 Sudoeste 10 Oeste 0 1025.2 -- 81
2020-11-10 05:00:00 14 5 Sudoeste 8 Sudoeste 0 1025.1 -- 83
2020-11-10 04:00:00 14.1 6 Sudoeste 9 Sudoeste 0 1024.9 -- 83
2020-11-10 03:00:00 14.1 5 Sudoeste 8 Sudoeste 0 1024.8 -- 83
2020-11-10 02:00:00 14 6 Sudoeste 8 Sudoeste 0 1024.6 -- 84
2020-11-10 01:00:00 13.9 7 Sudoeste 9 Sudoeste 0 1024.5 -- 85
2020-11-10 00:00:00 14.3 4 Sudoeste 8 Sudoeste 0 1024.4 -- 84
2020-11-09 23:00:00 14.6 5 Sudoeste 12 Oeste 0.2 1024.4 -- 83
2020-11-09 22:00:00 14.4 5 Sudoeste 13 Sur 0 1024 -- 81
2020-11-09 21:00:00 14.1 8 Sudoeste 11 Sudoeste 0 1023.3 -- 79
2020-11-09 20:00:00 14.5 5 Sur 11 Sudoeste 0 1022.7 -- 76
2020-11-09 19:00:00 15 2 Sudoeste 10 Sudeste 0 1022.2 -- 75
2020-11-09 18:00:00 16 6 Sudeste 10 Sudeste 0.2 1021.4 -- 76
2020-11-09 17:00:00 17.2 4 Sur 21 Oeste 0.2 1020.9 -- 74
2020-11-09 16:00:00 17.6 12 Oeste 25 Oeste 0 1020.3 -- 72
2020-11-09 15:00:00 18 11 Oeste 25 Oeste 0 1019.6 -- 73
2020-11-09 14:00:00 17.9 8 Oeste 19 Oeste 0 1019.1 -- 71
2020-11-09 13:00:00 18.2 14 Noroeste 20 Noroeste 0 1019 -- 66
2020-11-09 12:00:00 18.4 12 Noroeste 14 Noroeste 0 1019 -- 59
2020-11-09 11:00:00 19.3 4 Sudoeste 10 Sur 0 1018.6 -- 60
2020-11-09 10:00:00 18.5 6 Sudoeste 18 Oeste 0 1018.4 -- 56
2020-11-09 09:00:00 14.5 12 Sudoeste 16 Sudoeste 0 1017.5 -- 62
2020-11-09 08:00:00 13.4 12 Sudoeste 17 Sudoeste 0 1016.5 -- 67
2020-11-09 07:00:00 13.3 0 Calma 12 Sudoeste 0 1015.8 -- 72
2020-11-09 06:00:00 13 3 Sudeste 10 Sur 0 1015.8 -- 71
2020-11-09 05:00:00 14.1 6 Sudeste 14 Sudoeste 0 1015.6 -- 70
2020-11-09 04:00:00 13.2 10 Sudoeste 13 Sudoeste 0 1015.4 -- 70
2020-11-09 03:00:00 14.6 5 Sudeste 10 Sudoeste 0 1014.9 -- 67
2020-11-09 02:00:00 14.7 5 Sudeste 10 Sudoeste 0 1014.8 -- 64
2020-11-09 01:00:00 14.2 3 Sur 15 Sudoeste 0 1014.6 -- 65
2020-11-09 00:00:00 15.4 3 Este 21 Sudoeste 0 1014.3 -- 62
2020-11-08 23:00:00 15.9 4 Sudoeste 19 Sudoeste 0 1014 -- 59
2020-11-08 22:00:00 15.7 9 Sudoeste 15 Sudoeste 0 1013.9 -- 60
2020-11-08 21:00:00 15.3 4 Oeste 11 Sudoeste 0 1013.5 -- 63
2020-11-08 20:00:00 15 16 Sudoeste 21 Sudoeste 0 1013.4 -- 64
2020-11-08 19:00:00 17 10 Sudoeste 18 Sudoeste 0 1013.1 -- 57
2020-11-08 18:00:00 17.4 9 Sudoeste 17 Sudoeste 0 1012.7 -- 64
2020-11-08 17:00:00 18.2 6 Sudoeste 18 Sudoeste 0 1012.7 -- 62
2020-11-08 16:00:00 18.9 7 Sudoeste 12 Sudoeste 0 1012.7 -- 59
2020-11-08 15:00:00 19.2 9 Sudeste 21 Nordeste 0 1012.8 -- 55
2020-11-08 14:00:00 17.8 4 Oeste 10 Sudoeste 0 1013.4 -- 65
2020-11-08 13:00:00 17.8 0 Calma 10 Sudoeste 0 1013.5 -- 65
2020-11-08 12:00:00 17.9 4 Sur 14 Sudoeste 0 1014.2 -- 60
2020-11-08 11:00:00 16 3 Sur 7 Este 0 1014.5 -- 68
2020-11-08 10:00:00 14.7 3 Sudoeste 12 Sudoeste 0 1014.6 -- 67
2020-11-08 09:00:00 14.4 10 Sudoeste 19 Sudoeste 0 1014.8 -- 67
2020-11-08 08:00:00 13.3 4 Sudoeste 13 Oeste 0 1014.3 -- 69
2020-11-08 07:00:00 13.6 3 Sudeste 16 Sudoeste 0 1014.2 -- 67
2020-11-08 06:00:00 14.7 9 Sudoeste 19 Sudoeste 0 1014.5 -- 62
2020-11-08 05:00:00 14.4 13 Sudoeste 17 Sudoeste 0 1014.6 -- 62
2020-11-08 04:00:00 12.8 7 Sudoeste 17 Sudoeste 0 1015 -- 72
2020-11-08 03:00:00 12.6 3 Sudeste 10 Sudoeste 0 1015.2 -- 73
2020-11-08 02:00:00 12.4 10 Sudoeste 14 Sudoeste 0 1015.5 -- 75
2020-11-08 01:00:00 13 4 Sur 10 Sudoeste 0 1015.6 -- 75
2020-11-08 00:00:00 13.4 4 Sur 11 Sudoeste 0 1015.7 -- 74
2020-11-07 23:00:00 13.7 4 Sur 17 Sudoeste 0 1015.8 -- 73
2020-11-07 22:00:00 13.4 8 Sudoeste 15 Sudoeste 0 1015.4 -- 73
2020-11-07 21:00:00 14.4 6 Sudoeste 12 Sudoeste 0 1015.2 -- 70
2020-11-07 20:00:00 14.3 10 Sudoeste 15 Sudoeste 0 1014.8 -- 71
2020-11-07 19:00:00 15.7 4 Sudeste 7 Sur 0 1014.1 -- 67
2020-11-07 18:00:00 16.4 3 Sur 12 Este 0 1013.5 -- 69
2020-11-07 17:00:00 17.3 9 Este 12 Este 0 1013 -- 68
2020-11-07 16:00:00 18.5 2 Este 10 Noroeste 0 1012.6 -- 64
2020-11-07 15:00:00 20 10 Noroeste 18 Noroeste 0 1012 -- 56
2020-11-07 14:00:00 19.3 10 Noroeste 17 Noroeste 0 1011.9 -- 57
2020-11-07 13:00:00 19.4 6 Oeste 12 Oeste 0 1011.7 -- 61
2020-11-07 12:00:00 17.9 5 Sudoeste 11 Oeste 0 1011.6 -- 70
2020-11-07 11:00:00 16.7 4 Sur 12 Sudoeste 0 1011 -- 75
2020-11-07 10:00:00 15.4 7 Sudoeste 13 Sudoeste 0 1010.3 -- 79
2020-11-07 09:00:00 15.1 5 Sudoeste 10 Sur 0 1009.3 -- 80
2020-11-07 08:00:00 15.4 2 Nordeste 8 Oeste 0 1008.9 -- 78
2020-11-07 07:00:00 15.3 3 Sur 16 Sudoeste 0 1008.5 -- 78
2020-11-07 06:00:00 15.6 5 Sudoeste 9 Oeste 0 1008.2 -- 77
2020-11-07 05:00:00 15.7 5 Sudoeste 19 Oeste 0 1008.2 -- 77
2020-11-07 04:00:00 16.1 6 Sur 22 Sur 0 1008.2 -- 75
2020-11-07 03:00:00 16.2 5 Oeste 16 Sudoeste 0.2 1008.4 -- 75
2020-11-07 02:00:00 16.2 9 Sudoeste 19 Sudoeste 1.2 1009 -- 74
2020-11-07 01:00:00 17.6 9 Sudoeste -- -- 0 1008.2 -- 65
2020-11-07 00:00:00 18.5 -- -- -- -- 0.2 1007.4 -- 65
2020-11-06 23:00:00 19.3 -- -- -- -- 1.2 1008.6 -- 62
2020-11-06 22:00:00 22.4 18 Sudeste 41 Este 0 1006.5 -- 47
2020-11-06 21:00:00 20.8 31 Este 47 Este 0 1006.3 -- 56
2020-11-06 20:00:00 20.3 40 Este 56 Este 0 1007 -- 58
2020-11-06 19:00:00 21.3 26 Sudeste 48 Este 0 1007.2 -- 52
2020-11-06 18:00:00 21.4 22 Sudeste 46 Este 0 1007.4 -- 51
2020-11-06 17:00:00 21.1 31 Este 49 Este 0 1008.3 -- 53
2020-11-06 16:00:00 20.5 30 Este 55 Este 0 1008.6 -- 59
2020-11-06 15:00:00 23.1 33 Este 55 Este 0 1008.8 -- 45
2020-11-06 14:00:00 23.7 31 Este 48 Este 0 1009.8 -- 42
2020-11-06 13:00:00 23.2 31 Este 50 Este 0 1011.6 -- 41
2020-11-06 12:00:00 22.1 21 Este 39 Sudeste 0 1012.7 -- 47
2020-11-06 11:00:00 21.3 24 Sudeste 45 Sudeste 0 1013.4 0.7 43
2020-11-06 10:00:00 21.1 27 Sudeste 46 Sudeste 0 1013.2 -- 43
2020-11-06 09:00:00 20.4 19 Sudeste 38 Este 0 1013.3 -- 46
2020-11-06 08:00:00 19.3 11 Sudeste -- -- 0 1012.7 -- 51
2020-11-06 07:00:00 18.9 -- -- -- -- 0 1012.8 -- 54
2020-11-06 06:00:00 17.3 8 Norte -- -- 0 1012.9 -- 62
2020-11-06 05:00:00 14.3 11 Sudoeste -- -- 0 1013.1 -- 68
2020-11-06 04:00:00 14.8 9 Sur 15 Sudoeste 0 1013.3 -- 67
2020-11-06 03:00:00 16.3 -- -- -- -- 0 1013.6 -- 60
2020-11-06 02:00:00 18.6 14 Sudeste 51 Este 0 1013.5 -- 55
2020-11-06 01:00:00 16.9 30 Este 53 Este 0 1014.1 -- 69
2020-11-06 00:00:00 16.4 27 Este -- -- 0 1014.7 -- 70
2020-11-05 23:00:00 15.6 10 Sudeste 43 Este 0 1015.6 -- 64
2020-11-05 22:00:00 15.3 25 Este -- -- 0 1016.1 -- 70
2020-11-05 21:00:00 14.1 6 Sudeste -- -- 0 1016.7 -- 74
2020-11-05 20:00:00 14.3 13 Este 33 Este 0 1017.6 -- 77
2020-11-05 19:00:00 14.7 21 Este 40 Este 0 1017.9 -- 76
2020-11-05 18:00:00 15.2 28 Este 43 Este 0 1018 -- 74
2020-11-05 17:00:00 15.2 28 Este 53 Este 0 1018.5 -- 72
2020-11-05 16:00:00 15.3 40 Este 59 Este 0 1018.6 -- 73
2020-11-05 15:00:00 16.2 40 Este 57 Este 0 1019.2 -- 65
2020-11-05 14:00:00 15.9 37 Este 50 Este 0 1020 -- 60
2020-11-05 13:00:00 13.7 34 Este 50 Este 0 1021.1 -- 66
2020-11-05 12:00:00 13.2 36 Este 55 Este 0 1022.5 -- 65
2020-11-05 11:00:00 12.7 27 Este 44 Este 0 1023.3 -- 63
2020-11-05 10:00:00 12.5 30 Este 47 Este 0 1024 -- 62
2020-11-05 09:00:00 11.9 28 Este 45 Este 0 1023.8 -- 67
2020-11-05 08:00:00 11.3 19 Sudeste 37 Este 0 1024.1 -- 67
2020-11-05 07:00:00 11.7 28 Este 39 Este 0 1024 -- 67
2020-11-05 06:00:00 11.8 18 Este 37 Este 0 1024.6 -- 67
2020-11-05 05:00:00 11.9 24 Este 44 Este 0 1024.8 -- 67
2020-11-05 04:00:00 12.3 30 Este 46 Este 0 1024.8 -- 64
2020-11-05 03:00:00 12.3 27 Este 42 Este 0 1025.2 -- 64
2020-11-05 02:00:00 12.3 23 Este 41 Este 0 1025.4 -- 62
2020-11-05 01:00:00 12.3 17 Este 39 Este 0 1025.7 -- 63
2020-11-05 00:00:00 12.2 17 Sudeste 31 Este 0 1026.1 -- 64
2020-11-04 23:00:00 12 15 Sudeste 30 Este 0 1025.9 -- 67
2020-11-04 22:00:00 11.4 16 Sudeste 32 Este 0.2 1025.8 -- 72
2020-11-04 21:00:00 11 21 Este 41 Este 1.4 1025.7 -- 78
2020-11-04 20:00:00 10.7 23 Sudeste 48 Sudeste 1.8 1025.5 -- 77
2020-11-04 19:00:00 11.1 21 Sudeste 45 Este 2.4 1024.9 -- 75
2020-11-04 18:00:00 12 16 Sudeste 27 Sudeste 0 1024.4 -- 72
2020-11-04 17:00:00 12.9 20 Este 34 Este 0 1024.2 -- 68
2020-11-04 16:00:00 13.7 18 Este 28 Este 0 1024 -- 63
2020-11-04 15:00:00 13.1 17 Nordeste 29 Nordeste 0 1024.1 -- 69
2020-11-04 14:00:00 13.6 13 Nordeste 19 Norte 0 1024.8 -- 65
2020-11-04 13:00:00 14.3 5 Noroeste 8 Noroeste 0 1025.2 -- 66
2020-11-04 12:00:00 13.2 3 Oeste 8 Oeste 0 1025.7 -- 73
2020-11-04 11:00:00 11.4 4 Sudoeste 12 Nordeste 0.6 1025.8 0.7 78
2020-11-04 10:00:00 10.3 5 Este 8 Este 0 1025.9 -- 78
2020-11-04 09:00:00 9.6 4 Sudoeste 11 Oeste 0 1025.4 -- 80
2020-11-04 08:00:00 9.3 5 Sudoeste 15 Sudoeste 0.6 1025.1 -- 80
2020-11-04 07:00:00 9.7 5 Sudoeste 12 Oeste 0.8 1026.1 -- 78
2020-11-04 06:00:00 10.1 0 Calma 13 Oeste 0 1026.3 -- 71
2020-11-04 05:00:00 10 7 Sudoeste 12 Sudoeste 0 1026.5 -- 73
2020-11-04 04:00:00 10.1 3 Sudoeste 10 Sudoeste 0 1027.3 -- 70
2020-11-04 03:00:00 9.8 6 Sudoeste 19 Oeste 0 1027.9 -- 71
2020-11-04 02:00:00 9.7 14 Oeste 21 Oeste 0 1028.5 -- 73
2020-11-04 01:00:00 9.8 7 Sudoeste 13 Sudoeste 0 1029 -- 71
2020-11-04 00:00:00 10.3 6 Sudoeste 13 Sur 0 1029.9 -- 73
2020-11-03 23:00:00 10.3 7 Sudoeste 22 Oeste 0 1031 -- 75
2020-11-03 22:00:00 10.2 10 Sudoeste 25 Sudoeste 0.2 1031.3 -- 76
2020-11-03 21:00:00 10.5 6 Sudoeste 14 Oeste 0.6 1031.6 -- 78
2020-11-03 20:00:00 10.8 6 Sudoeste 18 Sur 0 1031.7 -- 74
2020-11-03 19:00:00 11.4 6 Sudoeste 15 Sudoeste 0.2 1031.9 -- 75
2020-11-03 18:00:00 11.5 8 Sudoeste 15 Sudoeste 0.2 1031.8 -- 77
2020-11-03 17:00:00 12.2 10 Oeste 26 Noroeste 0.4 1032.3 -- 74
2020-11-03 16:00:00 13.4 6 Sudoeste 18 Oeste 0 1031.8 -- 65
2020-11-03 15:00:00 13.7 7 Sudoeste 20 Sudoeste 0 1031.8 -- 67
2020-11-03 14:00:00 12.6 9 Sudoeste 19 Sudoeste 0.4 1032.3 -- 77
2020-11-03 13:00:00 12.7 12 Oeste 23 Oeste 0 1032.7 -- 77
2020-11-03 12:00:00 12.3 11 Sudoeste 21 Oeste 0.6 1032.5 -- 83
2020-11-03 11:00:00 12.5 8 Oeste 19 Oeste 0.6 1032.1 -- 81
2020-11-03 10:00:00 12.5 10 Oeste 27 Oeste 0 1031.4 -- 76
2020-11-03 09:00:00 12.7 11 Oeste 34 Oeste 0.2 1030.2 -- 79
2020-11-03 08:00:00 12.6 15 Oeste 27 Oeste 0 1029 -- 72
2020-11-03 07:00:00 12.4 10 Oeste 17 Oeste 0 1028.2 -- 63
2020-11-03 06:00:00 12.4 9 Sudoeste 15 Sudoeste 0 1028.1 -- 69
2020-11-03 05:00:00 12.9 6 Sudoeste 19 Sudoeste 0 1027.6 -- 75
2020-11-03 04:00:00 13 6 Oeste 12 Sudoeste 0 1027.5 -- 80
2020-11-03 03:00:00 12.8 5 Sudoeste 14 Sudoeste 0 1027.2 -- 84
2020-11-03 02:00:00 12.5 6 Sudoeste 15 Sudoeste 0 1026.9 -- 85
2020-11-03 01:00:00 12.3 7 Sudoeste 15 Sur 0 1026.9 -- 87
2020-11-03 00:00:00 12.5 8 Oeste 16 Oeste 0.2 1026.9 -- 86
2020-11-02 23:00:00 12.5 5 Sudoeste 12 Sudoeste 0 1026.5 -- 86
2020-11-02 22:00:00 12.4 5 Sudoeste 11 Sudoeste 0.6 1026.3 -- 86
2020-11-02 21:00:00 12.4 6 Sur 13 Sudoeste 0.8 1026 -- 86
2020-11-02 20:00:00 12.6 6 Sudoeste 15 Oeste 1.4 1025.7 -- 86
2020-11-02 19:00:00 13 12 Oeste 33 Noroeste 0.2 1025.1 -- 85
2020-11-02 18:00:00 14 4 Sudoeste 19 Oeste 0 1024.1 -- 81
2020-11-02 17:00:00 14.5 8 Oeste 16 Oeste 0.2 1023.7 -- 79
2020-11-02 16:00:00 14.6 10 Oeste 25 Sudoeste 0 1023.3 -- 79
2020-11-02 15:00:00 14.8 10 Oeste 28 Oeste 0.2 1022.9 -- 84
2020-11-02 14:00:00 14.5 13 Oeste 41 Sudoeste 0.4 1022.5 -- 84
2020-11-02 13:00:00 16.7 17 Oeste 38 Oeste 0 1021.7 -- 83
2020-11-02 12:00:00 18.8 26 Oeste 46 Oeste 0 1020.6 -- 73
2020-11-02 11:00:00 23.8 2 Oeste 10 Sur 0 1016.9 -- 57
2020-11-02 10:00:00 20 3 Oeste 12 Sudoeste 0 1016.8 -- 67
2020-11-02 09:00:00 15.6 5 Oeste 14 Sudoeste 0 1016.7 -- 80
2020-11-02 08:00:00 14.7 2 Sudeste 11 Sudoeste 0 1017 -- 81
2020-11-02 07:00:00 14.3 8 Sudoeste 11 Sudoeste 0 1017.5 -- 81
2020-11-02 06:00:00 14.8 7 Sudoeste 11 Sudoeste 0 1017.3 -- 80
2020-11-02 05:00:00 14.8 5 Sudoeste 9 Sudoeste 0 1017 -- 79
2020-11-02 04:00:00 15.2 2 Sudeste 15 Sudoeste 0 1016.4 -- 77
2020-11-02 03:00:00 15.1 8 Sudoeste 13 Sudoeste 0 1016.4 -- 77
2020-11-02 02:00:00 15.9 5 Sudoeste 11 Sudoeste 0 1016.6 -- 75
2020-11-02 01:00:00 15.6 7 Sudoeste 12 Sudoeste 0 1016.7 -- 76
2020-11-02 00:00:00 16.1 8 Sudoeste 13 Sudoeste 0 1017 -- 74
2020-11-01 23:00:00 16.4 10 Sudoeste 13 Sudoeste 0 1017 -- 73
2020-11-01 22:00:00 17.2 3 Sudoeste 11 Sudoeste 0 1016.5 -- 71
2020-11-01 21:00:00 17.7 3 Sudeste 6 Sur 0 1016.6 -- 69
2020-11-01 20:00:00 17.9 3 Sudeste 9 Sudoeste 0 1016.9 -- 68
2020-11-01 19:00:00 18.8 8 Sudoeste 11 Sudoeste 0 1017 -- 65
2020-11-01 18:00:00 19.6 8 Sudoeste 11 Sudoeste 0 1016.7 -- 68
2020-11-01 17:00:00 20 4 Sudoeste 9 Sudoeste 0 1016.8 -- 64
2020-11-01 16:00:00 19.8 2 Norte 9 Noroeste 0 1017.3 -- 65
2020-11-01 15:00:00 20.8 0 Calma 9 Noroeste 0 1017 -- 62
2020-11-01 14:00:00 21.8 5 Noroeste 13 Norte 0 1017.5 -- 59
2020-11-01 13:00:00 20.3 9 Noroeste 14 Noroeste 0 1018.2 -- 68
2020-11-01 12:00:00 20.3 3 Sur 12 Noroeste 0 1019.2 -- 68
2020-11-01 11:00:00 19.6 9 Sudoeste 12 Sudoeste 0 1018.8 -- 68
2020-11-01 10:00:00 18.7 5 Sudoeste 10 Sudoeste 0 1018.8 -- 65
2020-11-01 09:00:00 18 8 Sudoeste 15 Sudoeste 0 1018.2 -- 63
2020-11-01 08:00:00 16.9 3 Sur 9 Sudoeste 0 1017.4 -- 69
2020-11-01 07:00:00 18 7 Sudoeste 12 Sudoeste 0 1017.5 -- 62
2020-11-01 06:00:00 17.7 4 Sur 7 Sudoeste 0 1017.4 -- 65
2020-11-01 05:00:00 16.9 2 Sudeste 8 Noroeste 0 1017.8 -- 67
2020-11-01 04:00:00 16.8 2 Sudoeste 11 Sudoeste 0 1017.9 -- 66
2020-11-01 03:00:00 16.7 4 Sudoeste 8 Sudoeste 0 1018 -- 66
2020-11-01 02:00:00 17.6 6 Sur 11 Sudoeste 0 1018.1 -- 59
2020-11-01 01:00:00 17.4 3 Sudeste 8 Sudoeste 0 1018.4 -- 57
2020-11-01 00:00:00 17.5 4 Sur 7 Sur 0 1019 -- 53
2020-10-31 23:00:00 15.9 6 Sudoeste 12 Sudoeste 0 1019.1 -- 62
2020-10-31 22:00:00 15.7 4 Sudoeste 12 Sudoeste 0 1019 -- 64
2020-10-31 21:00:00 15.9 6 Sudoeste 13 Sudoeste 0 1018.8 -- 60
2020-10-31 20:00:00 16.2 5 Sudoeste 12 Sudoeste 0 1019.2 -- 63
2020-10-31 19:00:00 16.9 6 Sudoeste 12 Sudoeste 0 1018.8 -- 63
2020-10-31 18:00:00 18.3 6 Sudoeste 9 Sudoeste 0 1019.2 -- 66
2020-10-31 17:00:00 19 3 Sudoeste 5 Noroeste 0 1018.9 -- 65
2020-10-31 16:00:00 19.7 2 Norte 12 Noroeste 0 1018.6 -- 61
2020-10-31 15:00:00 21.3 5 Sur 19 Nordeste 0 1018.5 -- 56
2020-10-31 14:00:00 21.2 4 Este 10 Noroeste 0 1019.7 -- 58
2020-10-31 13:00:00 19.1 4 Norte 9 Sudoeste 0 1019.9 -- 67
2020-10-31 12:00:00 18.1 6 Sur 10 Sur 0 1019.5 -- 62
2020-10-31 11:00:00 18 4 Este 9 Oeste 0 1019.2 -- 66
2020-10-31 10:00:00 17.1 4 Oeste 14 Sur 0 1019.5 -- 63
2020-10-31 09:00:00 13.7 5 Sudoeste 13 Noroeste 0 1019.1 -- 70
2020-10-31 08:00:00 11.6 2 Este 14 Sudoeste 0 1019.4 -- 75
2020-10-31 07:00:00 12 4 Sur 14 Sudoeste 0 1019.6 -- 72
2020-10-31 06:00:00 12.3 7 Sudoeste 15 Sudoeste 0 1019.2 -- 72
2020-10-31 05:00:00 11.8 10 Sudoeste 15 Sudoeste 0 1019.1 -- 75
2020-10-31 04:00:00 11.6 9 Sudoeste 18 Sudoeste 0 1019.4 -- 76
2020-10-31 03:00:00 11.8 9 Sudoeste 12 Sudoeste 0 1019.6 -- 75
2020-10-31 02:00:00 12.2 7 Sudoeste 13 Sudoeste 0 1020 -- 72
2020-10-31 01:00:00 12.5 4 Sudoeste 13 Sudoeste 0 1020.3 -- 71
2020-10-31 00:00:00 12.8 3 Sur 7 Este 0 1020.8 -- 72
2020-10-30 23:00:00 12.7 4 Sur 13 Sudoeste 0 1021.6 -- 76
2020-10-30 22:00:00 12.6 9 Sudoeste 15 Sudoeste 0 1022.3 -- 80
2020-10-30 21:00:00 13.5 8 Sudoeste 13 Este 0 1021.7 -- 80
2020-10-30 20:00:00 13.9 5 Sur 10 Sudeste 0 1021.7 -- 79
2020-10-30 19:00:00 15.7 9 Este 13 Este 0 1022.1 -- 79
2020-10-30 18:00:00 16.2 10 Este 24 Este 0 1022.2 -- 76
2020-10-30 17:00:00 16.9 17 Este 24 Este 0 1022.1 -- 73
2020-10-30 16:00:00 17.5 19 Este 24 Este 0 1022.2 -- 70
2020-10-30 15:00:00 20 14 Este 19 Este 0 1022.6 -- 61
2020-10-30 14:00:00 20.6 12 Este 15 Este 0 1022.7 -- 58
2020-10-30 13:00:00 19.9 11 Este 15 Este 0 1023.2 -- 61
2020-10-30 12:00:00 19.7 9 Nordeste 12 Nordeste 0 1023.5 -- 64
2020-10-30 11:00:00 18.4 3 Norte 8 Noroeste 0 1023.6 -- 70
2020-10-30 10:00:00 16.5 0 Calma 6 Sudoeste 0 1023.8 -- 77
2020-10-30 09:00:00 12.7 3 Sur 8 Sudoeste 0 1023.8 -- 85
2020-10-30 08:00:00 11.6 7 Sudoeste 12 Sudoeste 0 1023.5 -- 85
2020-10-30 07:00:00 12.3 3 Sur 11 Sudoeste 0 1023.4 -- 85
2020-10-30 06:00:00 12.5 6 Sudoeste 9 Sudoeste 0 1023.6 -- 83
2020-10-30 05:00:00 12.4 6 Sudoeste 12 Sudoeste 0 1023.5 -- 83
2020-10-30 04:00:00 11.9 11 Sudoeste 12 Sudoeste 0 1023.5 -- 84
2020-10-30 03:00:00 11.4 8 Sudoeste 10 Sudoeste 0 1023.5 -- 85
2020-10-30 02:00:00 11.5 2 Sudoeste 6 Sudeste 0 1023.6 -- 84
2020-10-30 01:00:00 12 2 Oeste 9 Sur 0 1023.9 -- 84
2020-10-30 00:00:00 12 0 Calma 6 Sur 0 1024.2 -- 83
2020-10-29 23:00:00 12.4 2 Oeste 6 Sudoeste 0 1024.2 -- 82
2020-10-29 22:00:00 13.3 0 Calma 8 Este 0 1023.9 -- 80
2020-10-29 21:00:00 13.8 3 Sudeste 7 Sur 0 1023.6 -- 79
2020-10-29 20:00:00 13.9 3 Sudeste 8 Sur 0 1023.7 -- 76
2020-10-29 19:00:00 14.7 3 Sudeste 8 Sudeste 0 1023.4 -- 72
2020-10-29 18:00:00 16.3 7 Sudeste 13 Este 0 1023.2 -- 70
2020-10-29 17:00:00 16.9 10 Este 13 Este 0 1023.6 -- 65
2020-10-29 16:00:00 18.1 8 Nordeste 11 Nordeste 0 1023.6 -- 61
2020-10-29 15:00:00 20.4 8 Nordeste 13 Este 0 1023.5 -- 57
2020-10-29 14:00:00 20.9 9 Este 14 Este 0 1023.9 -- 58
2020-10-29 13:00:00 20.4 10 Nordeste 16 Este 0 1024.4 -- 59
2020-10-29 12:00:00 19.9 13 Este 19 Este 0 1024.6 -- 59
2020-10-29 11:00:00 17.6 7 Norte 11 Nordeste 0 1024.7 -- 70
2020-10-29 10:00:00 15.4 3 Sudoeste 9 Sudoeste 0 1024.8 -- 77
2020-10-29 09:00:00 13.3 3 Sur 12 Sudoeste 0 1024.6 -- 79
2020-10-29 08:00:00 12.3 4 Sudoeste 9 Sudoeste 0 1023.9 -- 80
2020-10-29 07:00:00 13.3 6 Sur 14 Sudoeste 0 1023.7 -- 79
2020-10-29 06:00:00 13.3 5 Oeste 12 Sudoeste 0 1023.4 -- 80
2020-10-29 05:00:00 13.9 3 Este 9 Sudoeste 0 1023.7 -- 79
2020-10-29 04:00:00 13.2 6 Sudoeste 9 Sudoeste 0 1023.9 -- 79
2020-10-29 03:00:00 12.9 6 Sudoeste 14 Sudoeste 0 1023.8 -- 80
2020-10-29 02:00:00 13.2 6 Sudoeste 10 Sudoeste 0 1023.7 -- 81
2020-10-29 01:00:00 13.2 3 Sur 10 Sudoeste 0 1023.6 -- 81
2020-10-29 00:00:00 13.5 6 Sudoeste 9 Sudoeste 0 1023.3 -- 79
2020-10-28 23:00:00 14.2 7 Sudoeste 11 Sudoeste 0 1022.9 -- 77
2020-10-28 22:00:00 15.1 4 Sudeste 9 Sudoeste 0 1022.3 -- 75
2020-10-28 21:00:00 15.6 6 Sudoeste 8 Sur 0 1022.6 -- 71
2020-10-28 20:00:00 16.2 4 Sur 8 Sur 0 1021.9 -- 71
2020-10-28 19:00:00 16.6 4 Sur 7 Sur 0 1021.8 -- 70
2020-10-28 18:00:00 17.3 3 Sudeste 8 Noroeste 0 1021.4 -- 68
2020-10-28 17:00:00 17.9 8 Noroeste 13 Oeste 0 1020.8 -- 61
2020-10-28 16:00:00 18.4 5 Noroeste 12 Oeste 0 1020.3 -- 60
2020-10-28 15:00:00 20.4 5 Noroeste 15 Noroeste 0 1019.3 -- 51
2020-10-28 14:00:00 18.5 7 Sur 15 Oeste 0 1019.9 -- 58
2020-10-28 13:00:00 17.7 8 Oeste 19 Noroeste 0 1019.9 -- 59
2020-10-28 12:00:00 17.8 12 Noroeste 16 Noroeste 0 1019.8 -- 61
2020-10-28 11:00:00 17.2 6 Noroeste 10 Oeste 0 1019.3 -- 71
2020-10-28 10:00:00 16 4 Sudoeste 8 Sudoeste 0 1018.9 -- 79
2020-10-28 09:00:00 14.9 5 Sudoeste 10 Sudoeste 0 1018.2 -- 80
2020-10-28 08:00:00 14.9 3 Sudoeste 6 Sudeste 0 1017 -- 79
2020-10-28 07:00:00 15.1 4 Sudeste 8 Sur 0 1016.5 -- 78
2020-10-28 06:00:00 15.1 5 Sur 10 Sudoeste 0 1016 -- 76
2020-10-28 05:00:00 15.5 6 Sudoeste 22 Oeste 0 1015.5 -- 74
2020-10-28 04:00:00 15.2 6 Oeste 19 Sur 0 1015.4 -- 73
2020-10-28 03:00:00 14.8 6 Sudoeste 19 Oeste 0 1015.7 -- 77
2020-10-28 02:00:00 14.8 7 Sudoeste 23 Oeste 0 1015.7 -- 80
2020-10-28 01:00:00 14.8 6 Oeste 23 Oeste 0 1015.5 -- 83
2020-10-28 00:00:00 15.1 13 Oeste 26 Oeste 0.6 1015.2 -- 83